Location: Cudham
(51.3000°N, 0.0667°E)
Time: 21:04:01
(UTC+00:00)

Helios 1B rocket - Pass Details

Date: 19 May 2025
Orbit: 497 x 502 km, 98.2° (Epoch: 21 June)

Event Time Altitude Azimuth Distance (km) Brightness Sun altitude
Rises 20:51:51 0° 194° (SSW) 2,575 5.4 -8.1°
Reaches altitude 10° 20:54:12 10° 209° (SSW) 1,699 4.6 -8.4°
Maximum altitude 20:57:14 24° 265° (W) 1,063 4.2 -8.7°
Drops below altitude 10° 21:00:17 10° 321° (NW) 1,714 6.5 -9.0°
Sets 21:02:40 0° 335° (NNW) 2,605 7.5 -9.2°
